Imperial, NE

8:48 AM MST on February 26, 2017 (GMT -0700)
Imperial Municipal

Weather History for KIML - November, 2010

Change the Weather History Date:

Thursday, November 4, 2010

  Actual Average Record
Temperature  
Mean Temperature 41 °F 43 °F  
Max Temperature 57 °F 57 °F 80 °F (1999)
Min Temperature 24 °F 29 °F 10 °F (1982)
Degree Days  
Heating Degree Days 24 22  
Month to date heating degree days 65 86  
Cooling Degree Days 0 0  
Month to date cooling degree days 0 0  
Year to date cooling degree days 1172 963  
Moisture  
Dew Point 17 °F    
Average Humidity 41    
Maximum Humidity 63    
Minimum Humidity 18    
Precipitation  
Precipitation 0.00 in 0.03 in 1.06 in (1922)
Sea Level Pressure  
Sea Level Pressure 30.42 in    
Wind  
Wind Speed 9 mph (NW)    
Max Wind Speed 20 mph    
Max Gust Speed 28 mph    
Visibility 9 miles    
Events      
T = Trace of Precipitation, MM = Missing Value Source: NWS Daily Summary

Daily Weather History Graph

Daily Weather History Graph

Search for Another Location

Airport or City:

Trip Planner

Search our weather history database for the weather conditions in past years. The results will help you decide how hot, cold, wet, or windy it might be!

Date:

Astronomy

Nov. 04, 2010 Rise Set
Actual Time 7:19 AM MDT 5:39 PM MDT
Civil Twilight 6:51 AM MDT 6:08 PM MDT
Nautical Twilight 6:19 AM MDT 6:40 PM MDT
Astronomical Twilight 5:47 AM MDT 7:12 PM MDT
Moon 5:33 AM MDT (11/4) 4:25 PM MDT (11/4)
Length of Visible Light 11h 16m
Length of Day
10h 19m
Waning Crescent, 3% of the Moon is Illuminated
Nov 4
Waning Crescent
Nov 5
New
Nov 13
First Quarter
Nov 21
Full
Nov 28
Last Quarter

Hourly Weather History & Observations

Time (MDT) Temp. Windchill Dew Point Humidity Pressure Visibility Wind Dir Wind Speed Gust Speed Precip Events Conditions
12:53 AM 36.0 °F 27.5 °F 19.0 °F 50% 30.50 in 10.0 mi NW 12.7 mph - N/A   Clear
1:53 AM 36.0 °F 28.5 °F 19.9 °F 52% 30.49 in 10.0 mi NW 10.4 mph - N/A   Clear
2:53 AM 35.1 °F 27.4 °F 19.9 °F 54% 30.48 in 10.0 mi NW 10.4 mph - N/A   Clear
3:53 AM 30.0 °F 21.1 °F 19.0 °F 64% 30.50 in 10.0 mi WNW 10.4 mph - N/A   Clear
4:53 AM 30.9 °F 22.8 °F 19.0 °F 61% 30.49 in 10.0 mi WNW 9.2 mph - N/A   Clear
5:53 AM 30.0 °F 20.5 °F 18.0 °F 61% 30.51 in 10.0 mi WNW 11.5 mph - N/A   Clear
6:53 AM 30.0 °F 21.1 °F 19.0 °F 64% 30.51 in 10.0 mi WNW 10.4 mph - N/A   Clear
7:53 AM 32.0 °F 22.5 °F 19.0 °F 59% 30.51 in 10.0 mi WNW 12.7 mph - N/A   Clear
8:53 AM 37.9 °F 30.0 °F 19.9 °F 48% 30.51 in 10.0 mi NW 12.7 mph - N/A   Clear
9:53 AM 46.0 °F 39.6 °F 21.0 °F 37% 30.49 in 10.0 mi NNW 15.0 mph 21.9 mph N/A   Clear
10:53 AM 50.0 °F - 19.9 °F 31% 30.47 in 10.0 mi NNW 17.3 mph - N/A   Clear
11:53 AM 52.0 °F - 18.0 °F 26% 30.45 in 10.0 mi NNW 13.8 mph - N/A   Clear
12:53 PM 54.0 °F - 17.1 °F 23% 30.40 in 10.0 mi North 15.0 mph 26.5 mph N/A   Clear
1:53 PM 55.9 °F - 15.1 °F 20% 30.37 in 10.0 mi NNW 16.1 mph 23.0 mph N/A   Clear
2:53 PM 55.9 °F - 12.9 °F 18% 30.33 in 10.0 mi NW 12.7 mph - N/A   Clear
3:53 PM 55.0 °F - 14.0 °F 20% 30.33 in 10.0 mi NNW 13.8 mph 21.9 mph N/A   Clear
4:53 PM 54.0 °F - 15.1 °F 22% 30.32 in 10.0 mi NNW 9.2 mph - N/A   Clear
5:53 PM 42.1 °F 38.4 °F 14.0 °F 32% 30.35 in 10.0 mi North 5.8 mph - N/A   Clear
6:53 PM 42.1 °F 40.2 °F 12.0 °F 29% 30.35 in 10.0 mi NNW 3.5 mph - N/A   Clear
7:53 PM 35.1 °F - 14.0 °F 42% 30.36 in 9.0 mi Calm Calm - N/A   Clear
8:53 PM 30.0 °F 24.1 °F 14.0 °F 51% 30.35 in 9.0 mi NE 5.8 mph - N/A   Clear
9:53 PM 28.9 °F - 12.0 °F 49% 30.35 in 6.0 mi Calm Calm - N/A   Haze
10:53 PM 30.9 °F - 12.9 °F 47% 30.33 in 5.0 mi Calm Calm - N/A   Haze
11:53 PM 26.1 °F - 12.0 °F 55% 30.34 in 6.0 mi Calm Calm - N/A   Haze